Weather History for KFLG - June, 2014

Change the Weather History Date:

Monday, June 16, 2014

  Actual Average Record
Temperature  
Mean Temperature 63 °F 60 °F  
Max Temperature 77 °F 78 °F 92 °F (1940)
Min Temperature 48 °F 42 °F 24 °F (1907)
Degree Days  
Heating Degree Days 2 5  
Month to date heating degree days 57 120  
Since 1 July heating degree days 6476 6893  
Cooling Degree Days 0 0  
Month to date cooling degree days 1 0  
Year to date cooling degree days 1 0  
Growing Degree Days 12 (Base 50)    
Moisture  
Dew Point 13 °F    
Average Humidity 16    
Maximum Humidity 24    
Minimum Humidity 7    
Precipitation  
Precipitation 0.00 in 0.00 in 0.17 in (1933)
Month to date precipitation 0.00 0.16  
Year to date precipitation 3.21 8.27  
Snow  
Snow 0.00 in 0.00 in 0.00 in (2002)
Month to date snowfall 0.0 0.1  
Since 1 July snowfall 44.4 101.8  
Snow Depth 0.00 in    
Sea Level Pressure  
Sea Level Pressure 29.77 in    
Wind  
Wind Speed 25 mph (SW)    
Max Wind Speed 47 mph    
Max Gust Speed 60 mph    
Visibility 10 miles    
Events      
T = Trace of Precipitation, MM = Missing Value Source: NWS Daily Summary

Daily Weather History Graph

Daily Weather History Graph

Search for Another Location

Airport or City:

Trip Planner

Search our weather history database for the weather conditions in past years. The results will help you decide how hot, cold, wet, or windy it might be!

Date:

Astronomy

Jun. 16, 2014 Rise Set
Actual Time 5:11 AM MST 7:43 PM MST
Civil Twilight 4:42 AM MST 8:12 PM MST
Nautical Twilight 4:05 AM MST 8:49 PM MST
Astronomical Twilight 3:24 AM MST 9:30 PM MST
Moon 10:46 PM MST (6/16) 9:12 AM MST (6/16)
Length of Visible Light 15h 30m
Length of Day
14h 31m
Waning Gibbous, 82% of the Moon is Illuminated
Jun 16
Waning Gibbous
Jun 19
Last Quarter
Jun 27
New
Jul 5
First Quarter
Jul 12
Full

Hourly Weather History & Observations

Time (MST) Temp. Dew Point Humidity Pressure Visibility Wind Dir Wind Speed Gust Speed Precip Events Conditions
12:57 AM 50.0 °F -0.0 °F 13% 29.76 in 10.0 mi SW 8.1 mph - N/A   Clear
1:57 AM 48.9 °F -0.0 °F 13% 29.77 in 10.0 mi SW 9.2 mph - N/A   Clear
2:57 AM 50.0 °F 1.0 °F 13% 29.75 in 10.0 mi SW 10.4 mph - N/A   Clear
3:57 AM 52.0 °F 3.0 °F 14% 29.77 in 10.0 mi SW 12.7 mph - N/A   Clear
4:57 AM 55.0 °F 7.0 °F 15% 29.78 in 10.0 mi SW 13.8 mph - N/A   Clear
5:57 AM 54.0 °F 15.1 °F 22% 29.80 in 10.0 mi SW 16.1 mph - N/A   Clear
6:57 AM 59.0 °F 19.9 °F 22% 29.78 in 10.0 mi SSW 24.2 mph 32.2 mph N/A   Clear
7:57 AM 63.0 °F 18.0 °F 18% 29.78 in 10.0 mi SW 27.6 mph 34.5 mph N/A   Clear
8:57 AM 66.9 °F 12.9 °F 12% 29.78 in 10.0 mi SW 29.9 mph 39.1 mph N/A   Clear
9:57 AM 69.1 °F 10.0 °F 10% 29.78 in 10.0 mi WSW 33.4 mph 44.9 mph N/A   Clear
10:57 AM 72.0 °F 10.0 °F 9% 29.77 in 10.0 mi SW 26.5 mph 42.6 mph N/A   Clear
11:57 AM 73.9 °F 8.1 °F 8% 29.78 in 10.0 mi SW 36.8 mph 57.5 mph N/A   Clear
12:57 PM 73.9 °F 9.0 °F 8% 29.79 in 10.0 mi SW 40.3 mph 51.8 mph 0.00 in   Clear
1:57 PM 75.9 °F 8.1 °F 7% 29.77 in 10.0 mi SW 35.7 mph 47.2 mph N/A   Clear
2:57 PM 75.0 °F 9.0 °F 8% 29.77 in 10.0 mi WSW 31.1 mph 56.4 mph N/A   Clear
3:57 PM 75.9 °F 10.9 °F 8% 29.75 in 10.0 mi SW 32.2 mph 46.0 mph N/A   Clear
4:04 PM 75.0 °F 10.0 °F 8% 30.06 in 10.0 mi SW 35.7 mph 56.4 mph N/A   Clear
4:57 PM 73.9 °F 12.9 °F 10% 29.73 in 10.0 mi SW 36.8 mph 54.1 mph N/A   Clear
5:57 PM 72.0 °F 16.0 °F 12% 29.73 in 10.0 mi SW 41.4 mph 52.9 mph N/A   Clear
6:57 PM 70.0 °F 19.0 °F 14% 29.73 in 10.0 mi WSW 23.0 mph 42.6 mph N/A   Clear
7:57 PM 66.9 °F 21.0 °F 17% 29.73 in 10.0 mi WSW 26.5 mph 40.3 mph N/A   Clear
8:57 PM 66.0 °F 24.1 °F 20% 29.73 in 10.0 mi WSW 25.3 mph 36.8 mph N/A   Clear
9:57 PM 64.9 °F 26.1 °F 23% 29.75 in 10.0 mi SW 18.4 mph 38.0 mph N/A   Clear
10:57 PM 64.0 °F 24.1 °F 22% 29.74 in 10.0 mi SW 20.7 mph 35.7 mph N/A   Clear
11:57 PM 63.0 °F 26.1 °F 25% 29.73 in 10.0 mi SW 17.3 mph 34.5 mph N/A   Clear